Regional Weather Roundup
Issued by NWS

Home | Current Version | Previous Version | Text Only | Print | Product List | Glossary Off
Versions: 1 2 3 4 5 6 7 8 9 10 11 12 13 14 15 16 17 18 19 20 21 22 23 24 25 26 27

000
ASUS45 KSLC 241610
RWRUT

UTAH REGIONAL WEATHER ROUNDUP
NATIONAL WEATHER SERVICE SALT LAKE CITY UT
1000 AM MDT SAT JUN 24 2017

UTZ001>011-023>025-241700-

NORTHERN UTAH

CITY           SKY/WX    TMP DP  RH WIND       PRES   REMARKS
BRIGHAM CITY   SUNNY     69  43  39 CALM      30.23S
HILL AFB       SUNNY     69  40  35 E16       30.24S
LOGAN          SUNNY     67  39  35 CALM      30.25S
OGDEN          SUNNY     72  40  31 SE9       30.23R
SALT LAKE CITY SUNNY     76  37  24 CALM      30.21S
TOOELE VALLEY  SUNNY     73  45  35 NW3       30.23S
WENDOVER         N/A     77  33  20 SE8       30.22S
HEBER CITY     SUNNY     61  32  33 CALM      30.31F
WEST JORDAN    SUNNY     73  47  39 S6        30.24S

$$

UTZ011>015-024>027-241700-

CENTRAL/NORTHEAST UTAH

CITY           SKY/WX    TMP DP  RH WIND       PRES   REMARKS
PROVO AIRPORT  SUNNY     70  42  36 N5        30.25S
MOAB/CANYONLAN SUNNY     82  19   9 N5        30.15R
DELTA          SUNNY     73  25  16 E3        30.24S
PRICE          SUNNY     78  22  12 NW13      30.26S
ROOSEVELT      SUNNY     72  32  23 E3        30.30S
VERNAL         SUNNY     75  34  22 E10       30.27S

$$

UTZ013>016-019>022-027-241700-

SOUTHERN UTAH

CITY           SKY/WX    TMP DP  RH WIND       PRES   REMARKS
BRYCE CANYON   SUNNY     75  24  15 NE10      30.38F
CEDAR CITY     SUNNY     75  24  15 N5        30.24F
MILFORD        SUNNY     79  22  12 N13       30.22F
ST GEORGE      SUNNY     90  26  10 N9        30.01F
HANKSVILLE     SUNNY     81  23  12 CALM      30.17F
BLANDING       SUNNY     79  24  13 CALM      30.29F

$$

REGIONAL REPORTS     COLORADO/ARIZONA

CITY           SKY/WX    TMP DP  RH WIND       PRES   REMARKS
CRAIG, CO      SUNNY     63  35  35 VRB5      30.35S
GRAND JUNCTION SUNNY     77  29  17 S9        30.18S
RIFLE, CO      SUNNY     72  30  21 CALM      30.25F
MONTROSE, CO   SUNNY     75  28  17 NW7       30.26S
CORTEZ, CO     SUNNY     75  30  19 CALM      30.24F
COLORADO CITY    N/A     86  30  13 NW6       30.18S
PAGE, AZ       SUNNY     87  22   9 NW5       30.11S
GRAND CANYON   SUNNY     85  20   9 NE9       30.29S
KINGMAN, AZ    SUNNY     94  40  15 NE7       30.00S HX  90
FLAGSTAFF, AZ  SUNNY     82  18   9 E14G21    30.30F

$$

REGIONAL REPORTS    NEVADA/IDAHO/WYOMING

CITY           SKY/WX    TMP DP  RH WIND       PRES   REMARKS
LAS VEGAS, NV  MOSUNNY   99  16   5 NE10      29.92S HX  92
ELY, NY        SUNNY     70  22  16 N6        30.33S
ELKO, NV       SUNNY     68  30  24 CALM      30.29S
POCATELLO, ID  SUNNY     66  43  43 NW6       30.28R
BURLEY, ID     SUNNY     68  34  28 MISG      30.24S
FORT BRIDGER,    N/A     60  33  35 SE8       30.43F
EVANSTON, WY   SUNNY     60  35  39 VRB3      30.39S
ROCK SPRINGS,  SUNNY     60  30  32 E9        30.40S
KEMMERER, WY     N/A     59  32  36 SE6       30.42S

$$




USA.gov is the U.S. government's official web portal to all federal, state and local government web resources and services.